Home   Weather   St. Johann im Pongau   Past weeks

Flag for Austria Past Weather in St. Johann im Pongau, Salzburg, Austria — Yesterday and Last 2 Weeks

Now
3 °F

Passing clouds.


Feels Like: -4 °F
Forecast: 13 / 36 °F
Wind: 3 mph from South

Location: Salzburg-Flughafen

Current Time: Jan 19, 2017 at 7:45:01 am

Latest Report: Jan 19, 2017 at 6:50 am


Visibility: N/A

Pressure: 30.48 "Hg (28.12 "Hg at 606m altitude)

Humidity: 85%

Dew Point: 0 °F

Location of St. Johann im PongauLocation

Past Weather in St. Johann im Pongau — Graph

°F

St. Johann im Pongau Temperature Yesterday

Maximum temperature yesterday: 28 °F (at 1:20 pm)
Minimum temperature yesterday: 3 °F (at 5:20 am)
Average temperature yesterday: 15 °F

High & Low Weather Summary for the Past Weeks

 TemperatureHumidityPressure
High41 °F (Jan 11, 10:50 pm)100% (Jan 4, 10:50 pm)30.66 "Hg (Jan 4, 10:50 pm)
Low0 °F (Jan 7, 12:20 am)41% (Jan 13, 12:20 pm)29.36 "Hg (Jan 13, 3:50 am)
Average25 °F84%30.14 "Hg
* Reported Jan 4 6:20 am — Jan 19 6:20 am, St. Johann im Pongau, Weather by CustomWeather, © 2017

Note: Actual official high and low records may vary slightly from our data, if they occured in-between our weather recording intervals... More about our weather records

Advertising

St. Johann im Pongau Weather History for the Previous 24 Hours

Scroll right to see more
 ConditionsComfort  
Time TempWeatherWind HumidityBarometerVisibility
6:20 am
Thu, Jan 19
1 °FClear.1 mph92%30.48 "Hg10 mi
5:50 am5 °FClear.1 mph85%30.48 "Hg10 mi
5:20 am3 °FPassing clouds.2 mph85%30.48 "HgN/A
4:50 am7 °FPassing clouds.1 mph85%30.48 "HgN/A
4:20 am5 °FFrigid.2 mph85%30.48 "Hg5 mi
3:50 am10 °FCold.2 mph92%30.48 "HgN/A
3:20 am7 °FPassing clouds.2 mph85%30.48 "HgN/A
2:50 am7 °FSleet. Passing clouds.3 mph85%30.48 "HgN/A
2:20 am9 °FPassing clouds.2 mph92%30.48 "Hg6 mi
1:50 am9 °FPassing clouds.3 mph92%30.48 "Hg6 mi
1:20 am10 °FCold.3 mph85%30.48 "Hg5 mi
12:50 am10 °FPassing clouds.2 mph92%30.48 "Hg6 mi
12:20 am9 °FPassing clouds.2 mph92%30.48 "Hg6 mi
11:50 pm
Wed, Jan 18
12 °FCold.1 mph85%30.51 "Hg6 mi
11:20 pm12 °FLight freezing rain. Passing clouds.3 mph92%30.48 "Hg4 mi
10:50 pm12 °FPassing clouds.5 mph92%30.51 "HgN/A
10:20 pm16 °FPassing clouds.3 mph86%30.51 "HgN/A
9:50 pm14 °FPassing clouds.3 mph85%30.51 "HgN/A
9:20 pm16 °FPassing clouds.2 mph93%30.51 "HgN/A
8:50 pm18 °FPassing clouds.3 mph86%30.51 "HgN/A
8:20 pm18 °FPassing clouds.1 mph86%30.51 "HgN/A
7:50 pm19 °FPassing clouds.3 mph79%30.51 "HgN/A
7:20 pm19 °FPassing clouds.3 mph86%30.51 "HgN/A
6:50 pm21 °FOvercast.3 mph80%30.51 "HgN/A
6:20 pm23 °FOvercast.8 mph80%30.48 "HgN/A
5:50 pm23 °FOvercast.9 mph80%30.48 "HgN/A
5:20 pm25 °FPartly cloudy.8 mph74%30.48 "HgN/A
4:50 pm25 °FPassing clouds.7 mph74%30.48 "HgN/A
4:20 pm25 °FPartly sunny.9 mph74%30.48 "HgN/A
3:50 pm25 °FPartly sunny.10 mph74%30.48 "HgN/A
3:20 pm27 °FPartly sunny.9 mph69%30.48 "HgN/A
2:50 pm27 °FScattered clouds.10 mph69%30.48 "HgN/A
2:20 pm27 °FScattered clouds.3 mph64%30.48 "HgN/A
1:50 pm25 °FScattered clouds.3 mph69%30.48 "HgN/A
1:20 pm28 °FPartly sunny.1 mph59%30.48 "HgN/A
12:50 pm25 °FScattered clouds.1 mph69%30.48 "HgN/A
12:20 pm23 °FScattered clouds.3 mph68%30.51 "HgN/A
11:50 am21 °FPassing clouds.3 mph74%30.51 "HgN/A
11:20 am18 °FPassing clouds.5 mph86%30.51 "HgN/A
10:50 am16 °FPassing clouds.3 mph93%30.51 "HgN/A
10:20 am16 °FPassing clouds.5 mph93%30.51 "HgN/A
9:50 am12 °FPassing clouds.5 mph92%30.51 "HgN/A
9:20 am10 °FPassing clouds.6 mph92%30.51 "HgN/A
8:50 am9 °FPassing clouds.5 mph92%30.51 "HgN/A
8:20 am3 °FPassing clouds.2 mph85%30.51 "HgN/A
7:50 am12 °FPassing clouds.2 mph85%30.48 "HgN/A
7:20 am7 °FPassing clouds.3 mph85%30.48 "HgN/A
Weather by CustomWeather, © 2017

See weather overviewHow to use our weather pages